Grand Junction, CO

7:52 AM MDT on April 24, 2018 (GMT -0600)
Walker

Weather History for KGJT - December, 2013

Change the Weather History Date:

Monday, December 2, 2013

  Actual Average Record
Temperature  
Mean Temperature 32 °F 32 °F  
Max Temperature 34 °F 42 °F 60 °F (2017)
Min Temperature 29 °F 21 °F 0 °F (2004)
Degree Days  
Heating Degree Days 33 33  
Month to date heating degree days 64 66  
Since 1 July heating degree days 1403 1294  
Cooling Degree Days 0 0  
Month to date cooling degree days 0 0  
Year to date cooling degree days 1269 1125  
Moisture  
Dew Point 30 °F    
Average Humidity 91    
Maximum Humidity 100    
Minimum Humidity 82    
Precipitation  
Precipitation 0.00 in 0.02 in 0.38 in (2005)
Month to date precipitation 0.00 0.04  
Year to date precipitation 11.47 8.87  
Snow  
Snow 0.00 in 0.10 in 4.00 in (1978)
Month to date snowfall 0.0 0.2  
Since 1 July snowfall 4.8 2.7  
Snow Depth 0.00 in    
Sea Level Pressure  
Sea Level Pressure 30.12 in    
Wind  
Wind Speed 3 mph (North)    
Max Wind Speed 10 mph    
Max Gust Speed 12 mph    
Visibility 9 miles    
Events      
T = Trace of Precipitation, MM = Missing Value Source: NWS Daily Summary

Daily Weather History Graph

Daily Weather History Graph

Search for Another Location

Airport or City:

Astronomy

Dec. 02, 2013 Rise Set
Actual Time 7:15 AM MST 4:51 PM MST
Civil Twilight 6:45 AM MST 5:21 PM MST
Nautical Twilight 6:12 AM MST 5:54 PM MST
Astronomical Twilight 5:40 AM MST 6:26 PM MST
Moon 6:44 AM MST (12/2) 4:57 PM MST (12/2)
Length of Visible Light 10h 35m
Length of Day
9h 36m
Waning Crescent, 0% of the Moon is Illuminated
Dec 2
Waning Crescent
Dec 2
New
Dec 9
First Quarter
Dec 17
Full
Dec 25
Last Quarter

Hourly Weather History & Observations

Time (MST) Temp. Windchill Dew Point Humidity Pressure Visibility Wind Dir Wind Speed Gust Speed Precip Events Conditions
12:37 AM 32.0 °F 27.5 °F 28.4 °F 87% 30.29 in 10.0 mi NNW 4.6 mph - N/A   Overcast
12:53 AM 32.0 °F 26.4 °F 28.9 °F 88% 30.32 in 10.0 mi NW 5.8 mph - N/A   Overcast
1:53 AM 32.0 °F 25.6 °F 28.9 °F 88% 30.30 in 10.0 mi NNW 6.9 mph - N/A   Overcast
2:15 AM 30.2 °F 24.3 °F 30.2 °F 100% 30.27 in 10.0 mi NNW 5.8 mph - N/A   Overcast
2:53 AM 30.9 °F 25.2 °F 30.0 °F 96% 30.29 in 10.0 mi North 5.8 mph - N/A   Overcast
3:53 AM 30.9 °F 26.2 °F 30.0 °F 96% 30.27 in 10.0 mi NNW 4.6 mph - N/A   Overcast
4:24 AM 30.2 °F 26.7 °F 30.2 °F 100% 30.22 in 10.0 mi NNW 3.5 mph - N/A   Overcast
4:53 AM 30.9 °F 27.5 °F 30.0 °F 96% 30.25 in 6.0 mi NNW 3.5 mph - N/A   Overcast
5:14 AM 30.2 °F - 30.2 °F 100% 30.21 in 8.0 mi Calm Calm - N/A   Overcast
5:53 AM 30.9 °F - 30.0 °F 96% 30.23 in 10.0 mi Calm Calm - N/A   Overcast
6:02 AM 30.2 °F - 30.2 °F 100% 30.18 in 8.0 mi Calm Calm - N/A   Overcast
6:14 AM 30.2 °F - 30.2 °F 100% 30.19 in 4.0 mi Calm Calm - N/A   Overcast
6:40 AM 30.2 °F 24.3 °F 30.2 °F 100% 30.19 in 6.0 mi NW 5.8 mph - N/A   Overcast
6:53 AM 30.9 °F - 30.9 °F 100% 30.22 in 7.0 mi Calm Calm - N/A   Overcast
7:14 AM 30.2 °F - 30.2 °F 100% 30.19 in 9.0 mi Calm Calm - N/A   Overcast
7:27 AM 30.2 °F - 30.2 °F 100% 30.18 in 10.0 mi Calm Calm - N/A   Overcast
7:37 AM 30.2 °F - 30.2 °F 100% 30.18 in 10.0 mi Calm Calm - N/A   Overcast
7:53 AM 30.9 °F - 30.0 °F 96% 30.20 in 10.0 mi Calm Calm - N/A   Overcast
8:53 AM 32.0 °F 27.5 °F 30.0 °F 92% 30.20 in 10.0 mi NNW 4.6 mph - N/A   Overcast
9:51 AM 32.0 °F 28.7 °F 30.2 °F 93% 30.14 in 10.0 mi NW 3.5 mph - N/A   Overcast
9:53 AM 32.0 °F 28.7 °F 30.0 °F 92% 30.18 in 10.0 mi NW 3.5 mph - N/A   Overcast
10:53 AM 32.0 °F - 30.0 °F 92% 30.16 in 9.0 mi Calm Calm - N/A   Overcast
11:04 AM 33.8 °F - 30.2 °F 87% 30.12 in 7.0 mi Calm Calm - N/A   Overcast
11:53 AM 33.1 °F - 30.0 °F 89% 30.12 in 10.0 mi Calm Calm - N/A   Overcast
12:48 PM 33.8 °F 30.8 °F 30.2 °F 87% 30.08 in 10.0 mi North 3.5 mph - N/A   Overcast
12:53 PM 33.1 °F 26.9 °F 30.0 °F 89% 30.11 in 10.0 mi North 6.9 mph - N/A   Overcast
1:53 PM 33.1 °F 30.0 °F 28.9 °F 85% 30.06 in 10.0 mi East 3.5 mph - N/A   Overcast
2:53 PM 33.1 °F 30.0 °F 28.9 °F 85% 30.04 in 10.0 mi NNE 3.5 mph - N/A   Overcast
3:53 PM 34.0 °F - 28.9 °F 82% 30.00 in 10.0 mi Calm Calm - N/A   Overcast
4:53 PM 34.0 °F - 28.9 °F 82% 29.98 in 10.0 mi Calm Calm - N/A   Overcast
5:53 PM 33.1 °F - 28.9 °F 85% 29.96 in 10.0 mi Calm Calm - N/A   Overcast
6:53 PM 34.0 °F - 30.0 °F 85% 29.94 in 10.0 mi Calm Calm - N/A   Overcast
7:53 PM 33.1 °F - 30.0 °F 89% 29.94 in 10.0 mi Calm Calm - N/A   Overcast
8:53 PM 32.0 °F - 30.0 °F 92% 29.91 in 10.0 mi Calm Calm - N/A   Overcast
9:53 PM 33.1 °F 28.7 °F 28.9 °F 85% 29.89 in 10.0 mi East 4.6 mph - N/A   Overcast
10:53 PM 32.0 °F 26.4 °F 28.9 °F 88% 29.89 in 10.0 mi SSE 5.8 mph - N/A   Overcast
11:36 PM 30.2 °F 22.6 °F 28.4 °F 93% 29.83 in 10.0 mi SE 8.1 mph - N/A   Scattered Clouds
11:53 PM 30.0 °F 23.2 °F 28.0 °F 92% 29.85 in 9.0 mi SE 6.9 mph - N/A   Clear